World > North America > United States > Ohio

Hourly Indian Hill, OH Regional Weather

Feedback E-mail the Weather

Quick WX

Indian Hill, OH Weather Maps

°F °C°F °C
Indian Hill Weather Map
UTC Time: 7/5/2022, 09:56
Your Time:

Indian Hill, OH Regional Weather

Expires:202207051000;;715706
ASUS41 KCLE 050912
RWRCLE
OHIO REGIONAL WEATHER ROUNDUP
NATIONAL WEATHER SERVICE WILMINGTON, OH
500 AM EDT TUE JUL 05 2022

NOTE: "FAIR" INDICATES FEW OR NO CLOUDS BELOW 12,000 FEET WITH NO
SIGNIFICANT WEATHER AND/OR OBSTRUCTIONS TO VISIBILITY.


OHZ042-051>053-060>062-070>072-077>081-051000-
  SOUTHWEST OHIO
  
CITY           SKY/WX    TMP DP  RH WIND       PRES   REMARKS
CINC-COVINGTON FAIR      76  72  87 S7        30.00R                  
CINC-LUNKEN    FAIR      72  69  90 CALM      30.00R                  
HAMILTON       FAIR      72  68  87 CALM      30.00S                  
DAYTON         MOCLDY    78  66  66 S10       30.01R                  
WRIGHT-PAT AFB CLOUDY    75  65  72 CALM      29.97R                  
DAYTON GENERAL FAIR      75  67  76 S6        30.00S                  
WILMINGTON     FAIR      76  67  73 S7        30.01S                  
$$


SKY/WX - Weather  TMP - Temperature  DP - Dew Point  RH - Humidity
WIND - Wind Direction/Speed PRES - Barometric Pressure VSB - Visibility
WCI - Wind Chill Index E13G22 Wind - East Wind 13 mph/Gusts of 22 mph

Trending Headlines

Indian Hill Radar Loop



Indian Hill Quick Facts


National Two Day Weather Forecast


E-mail the Indian Hill Weather Forecast

Voice your opinion or tell us about page issues...